Objednávky za rok 2019

január február marec apríl máj jún júl august september október november december

Číslo Dátum vyhotovenia Názov a adresa dodávateľa IČO Popis plnenia Odhadovaná suma bez DPH Zmluva
12774 01.02.2019 FORTISCHEM a.s. 46693874 KYSELINA CHLOROVODÍKOVÁ  31-33% 3 500,00  nie
12775 01.02.2019 IMET-AKE s.r.o. 31341870 ložiská 477,84  nie
12776 04.02.2019 Ex Tempore, s.r.o. 47971835 Výkon TBD na odkalisku popolovín 1 400,00  áno
12777 04.02.2019 Hydroconsulting, s.r.o. 35684348 Prevádzkový dohľad na odkalisku 700,00  nie
12778 04.02.2019 G.P.S. ZVOLEN, spol. s r.o. 36639231 Geodetické zameranie stability hrádze 3 120,00  áno
12779 04.02.2019 EUROFINS BEL/NOVAMANN s.r.o. 31329209 Monitoring vôd na odkalisku popolovín 3 800,00  áno
12780 04.02.2019 Iseng - Mont s.r.o. 34127071 Dodávka a montáž horúcovodného kotla 426 520,00  áno
12781 04.02.2019 VODOHOSPODÁRSKA VÝSTAVBA 156752 TBD nad stavbou VE Môťová 3 445,88  nie
12782 06.02.2019 TENIS CENTRUM s.r.o. 36029751 Prenájom priestorov a techniky 895,83  nie
12783 06.02.2019 AUTOKODUS s.r.o. 36530751 Servis motora Škoda Superb 202,73  nie
12784 06.02.2019 BELIČKOVÁ s.r.o. 45902836 drogistický tovar, náradie 47,62  nie
12785 06.02.2019 TECHNIK-stavba a bývanie s.r.o. 47531711 stavebniny 24,42  nie
12786 06.02.2019 OSKO, a.s. 36044717 elektroinštalačný materiál 136,04  nie
12787 06.02.2019 OSKO, a.s. 36044717 elektroinštalačný materiál 130,70  nie
12788 06.02.2019 B2B Partner s.r.o. 44413467 KRESLO KANCELÁRSKE DERRY 196,00  nie
12789 07.02.2019 AUTOKODUS s.r.o. 36530751 autopríslušenstvo 370,25  nie
12790 07.02.2019 OSKO, a.s. 36044717 ZDROJ NÚDZOVÝ NEXT VVG/EVG 6-36W 3hod. 109,75  nie
12791 07.02.2019 MEVA-SK s.r.o. Rožňava 31681051 NÁDOBA NA ODPAD PLASTOVÁ 240L MODRÁ 43,00  nie
12792 07.02.2019 SARO Slovakia s.r.o. 48136689 UHLIE ENERG. HNEDÉ PL 2 960 000,00  áno
12793 07.02.2019 KAREL HOLOUBEK - Trade Group a.s. 25060996 UHLIE ENERG. HNEDÉ CZ 2 440 000,00  áno
12794 07.02.2019 BRUTO s.r.o. 31440061 Oprava cestnej váhy 635,30  nie
12795 08.02.2019 SLOVING, spol. s r.o. 17321069 Oprava špičkového ohrieváka 3 881,25  nie
12796 08.02.2019 VANKA elektro s.r.o. 47188863 elektroinštalačný materiál 21,00  nie
12797 08.02.2019 VANKA elektro s.r.o. 47188863 elektroinštalačný materiál 20,52  nie
12798 12.02.2019 Linde Gas k.s. 31373861 Technické plyny 5 917,05  nie
12799 12.02.2019 MIKAPO s.r.o. 44721277 MINERÁLNA VODA BRUSNIANKA 1,5l 369,68  nie
12800 12.02.2019 AUTOKODUS s.r.o. 36530751 Servis a oprava, príprava na STK 469,30  nie
12801 12.02.2019 DRUCKER s.r.o. 44925417 tonery 279,40  nie
12802 12.02.2019 Scandi s.r.o. 36642983 hygienické potreby 270,00  nie
12803 12.02.2019 DELUX ZPS, s.r.o. 35934590 čistiace a hygienické potreby 370,58  nie
12804 12.02.2019 INSPECTA ZV s.r.o. 35694190 Revízia tlakových zariadení HC Slatina 1 180,00  nie
12805 12.02.2019 VST Engineering, spol. s r.o. 25264087 Prevádzková revízia I. ADZ K01 a K02 1 657,20  nie
12806 12.02.2019 VERTICAL INDUSTRIAL, a.s. 35830085 OP a OS bleskozvodu komína 120m TpA 1 487,65  áno
12807 12.02.2019 LIVONEC SK, s.r.o. 48121347 Kontrola požiarnych klapiek a dverí 351,50  nie
12808 12.02.2019 ENBRA SLOVAKIA s.r.o. 31624189 VODOMER BYTOVÝ DN15/Q3 2,5TV L=110mm 201,60  nie
12809 13.02.2019 BORMIS, s.r.o. 36747378 OOPP 265,47  nie
12810 13.02.2019 OdriStav, s.r.o. 46274481 SOĽ POSYPOVÁ 337,50  nie
12811 13.02.2019 Alza.cz a.s. 27082440 TLAČIAREŇ HP LASERJET PRO M402DW 381,66  nie
12812 13.02.2019 Čerpex, s.r.o. 46191801 ČERPADLO KALOVÉ 50-NFM-125-11,5 1 388,00  nie
12813 13.02.2019 Narimex, spol. s r.o. 679976 náradie 440,62  nie
12814 13.02.2019 Technická inšpekcia, a.s. 36653004 Opakovaná úradná skúška tlak. zariadenia 492,00  nie
12815 15.02.2019 Agroservis - Západ s.r.o. 46153551 Oprava nakladača 340,06  nie
12816 15.02.2019 ELEKTRO MANAGEMENT, s.r.o. 46701958 Zborník prednášok na USB 15,00  nie
12817 15.02.2019 HENNLICH s.r.o. 31344500 TESNENIE PLOCHÉ AF-400 D1130x1060x3mm 219,48  nie
12818 15.02.2019 Univerzitná vedeckotechnická 35986433 Stanovenie obsahu vlhkosti biomasy 80,00  nie
12819 18.02.2019 Internet Mall Slovakia s.r.o. 35950226 NOTEBOOK DELL INSPIRON 15 G3 678,00  nie
12820 18.02.2019 MaR TRADE, s.r.o 36437743 Metrologické overenie meračov tepla 327,00  nie
12821 18.02.2019 Technická inšpekcia, a.s. 36653004 Opakovaná úradná skúška plyn. zariadenia 710,00  nie
12822 18.02.2019 CHIVA SK spol. s r.o. 46472762 armatúry 277,92  nie
12823 18.02.2019 P O K O R N Ý, spol. s r.o. 46983864 tesniaci materiál 1 471,20  nie
12824 18.02.2019 Narimex, spol. s r.o. 679976 náradie 955,60  nie
12825 19.02.2019 ELBEK, s.r.o. 46646710 Oprava vypínačov 7,2kV typ VF 12.12.40 13 248,00  nie
12826 19.02.2019 LONAS, s.r.o. 46373926 maliarske potreby 80,51  nie
12827 19.02.2019 ENVI PROTECTION, s.r.o. 36576093 Overenie správy o emisiách CO2 1 900,00  áno
12828 20.02.2019 SANT, s.r.o. 50890930 BIOMASA ZOSTATKOVÁ ENERGETICKÁ 3 300,00  áno
12829 20.02.2019 OSKO, a.s. 36044717 elektroinštalačný materiál 32,35  nie
12830 21.02.2019 Duslo a.s. 35826487 Odstránenie netesnosti metódou FURMANITE 856,00  nie
12831 21.02.2019 REMA TIP TOP INCO - SK, 31621643 ND na pásový dopravník 413,62  nie
12832 21.02.2019 CORA GEO, s.r.o. 31612989 ASW Update, CG Hotline 2 386,57  nie
12833 21.02.2019 Agroservis - Západ s.r.o. 46153551 Oprava nakladača 599,40  nie
12834 21.02.2019 GX SOLUTIONS, a.s. 45232270 Oprava GPX 84,96  nie
12835 21.02.2019 Xepap, spol. s r.o. 31628605 Kancelárske potreby 153,95  nie
12836 21.02.2019 Wolters Kluwer SR s.r.o. 31348262 Publikácia Mzdy profesionálne 45,74  nie
12837 21.02.2019 Ing. Anton Adamec - RTZ 12607355 Odborná prehliadka VTZ tlakových 462,00  nie
12838 26.02.2019 Reca Slovensko s.r.o. 35789140 náradie 8 861,17  nie
12839 27.02.2019 FRONIUS Slovensko s.r.o. 36278025 príslušenstvo na zváranie 1 699,44  nie